Vorticity
19 14 4 -5 -11 5 10 15 4 10 11 11 11 9 5 7 2 3 1 7 4 5 6 6 7 7 8 8 9 8 6 7 7 8 9 10 13 2 13 10 10 -2 9 3 11
6 13 26 -9 12 -9 4 10 12 8 10 13 11 8 5 5 4 3 4 3 4 5 4 6 3 8 3 8 9 -0 10 7 6 8 7 2 4 2 4 7 7 11 13 11 6
4 6 5 16 20 -7 -14 7 10 9 10 13 10 8 5 5 5 1 4 3 3 4 5 3 6 7 7 8 9 13 3 9 7 7 1 7 5 7 10 8 8 3 5 5 8
-4 3 5 5 17 20 1 -0 13 10 12 12 10 7 5 6 -3 7 3 2 3 5 4 5 5 6 6 6 7 3 13 1 2 5 8 10 7 8 13 8 3 6 8 7 6
5 -7 6 14 -2 15 13 -9 12 11 14 11 9 7 5 5 -15 22 2 5 1 2 3 4 6 4 10 4 4 8 5 10 6 4 5 7 12 12 6 4 7 8 5 7 11
2 3 7 9 2 5 7 4 6 12 13 11 9 8 4 3 13 -6 13 3 1 1 1 2 1 3 8 9 9 -3 2 8 8 5 5 11 9 4 8 7 9 8 8 14 13
8 1 9 -2 8 5 23 7 4 11 13 12 9 7 6 1 8 5 -4 16 5 1 3 2 2 4 -6 10 21 14 9 9 9 14 16 12 6 12 8 8 8 7 13 14 13
-0 -7 7 -3 13 4 23 -0 4 9 11 12 10 6 8 9 2 12 8 -6 12 7 3 0 4 3 5 6 12 12 10 11 0 9 7 5 -8 -13 17 5 3 11 10 10 10
4 8 -17 -18 -8 15 13 10 2 12 7 14 6 8 6 8 8 3 12 7 3 1 1 4 4 3 5 19 6 13 1 3 2 11 7 8 -10 15 16 3 5 10 9 7 4
11 8 13 19 3 -20 18 13 6 3 7 11 16 8 -11 28 6 7 2 10 8 6 5 3 4 15 10 11 -6 19 3 7 7 8 7 1 5 14 17 9 5 12 7 3 2
10 7 12 14 -15 16 21 17 1 1 3 9 1 18 -3 37 27 -4 9 4 2 1 8 9 11 2 11 11 5 2 8 8 7 2 7 23 9 1 -1 14 22 12 4 3 -0
7 8 2 10 16 -10 5 28 -1 4 21 7 10 16 -4 -23 24 24 -0 3 3 6 14 8 5 13 9 3 2 14 7 8 18 8 4 13 7 0 14 40 18 15 4 2 1
8 10 7 8 12 9 12 -0 31 4 2 8 22 -0 22 -1 25 17 23 22 9 13 6 2 -1 12 14 2 13 14 7 4 3 0 15 15 31 12 15 6 1 8 4 2 1
5 9 11 12 2 9 11 15 20 19 -0 19 21 20 -1 21 -4 -5 18 5 5 14 8 15 12 6 0 6 6 2 7 7 12 13 12 5 8 11 8 20 16 5 4 1 1
5 9 12 11 -4 16 19 17 16 -0 9 13 19 2 24 -3 -5 32 2 15 -0 16 -6 1 14 20 16 16 20 18 10 7 6 7 10 24 6 75 12 11 9 4 2 1 2
-2 11 8 10 -1 16 12 11 4 -10 16 13 20 29 16 20 7 -5 14 -2 -5 7 13 -9 8 -4 4 5 8 0 10 4 21 14 27 48 -7 27 4 19 15 13 3 2 2
-19 10 8 12 10 13 11 7 -16 -14 8 22 13 8 20 28 21 4 -9 29 -21 11 10 12 8 12 0 -3 3 -6 3 22 10 7 13 10 15 -33 24 29 11 7 10 3 2
1 5 8 11 6 5 11 -9 -3 42 -17 9 14 17 13 12 11 21 14 13 28 -7 6 21 13 29 22 6 -16 20 6 -30 16 8 10 4 10 14 17 16 14 13 10 9 3
11 2 4 11 10 9 6 3 -2 1 28 -20 19 12 1 7 10 15 15 13 13 -0 -13 20 1 21 5 16 -2 20 11 9 3 14 16 7 3 19 3 11 17 12 12 6 4
-2 -8 12 10 9 9 11 -24 -6 -2 8 27 -5 11 14 21 -14 12 7 43 8 3 3 20 3 13 8 12 20 -19 20 14 5 11 7 14 14 -9 7 6 11 21 16 14 8
17 5 3 13 13 2 -4 2 -19 15 -7 6 6 13 9 8 5 18 8 -4 27 25 13 -12 -1 17 8 14 12 15 1 -7 2 2 4 9 3 9 10 14 -16 19 18 17 15
9 12 -6 13 -1 9 8 4 10 15 15 7 8 2 10 16 25 -1 -5 -5 23 3 5 1 13 -1 13 5 15 2 13 9 -7 13 3 5 12 7 22 15 15 8 6 6 28
14 1 37 -11 -2 7 4 12 -6 16 -6 7 9 9 4 11 6 7 11 8 14 7 22 21 20 5 16 29 16 7 17 -7 9 9 2 -1 -16 -4 3 11 8 21 1 6 7
11 -3 16 12 -20 7 11 12 -1 -4 11 -10 9 8 14 9 1 28 2 10 4 14 7 27 7 -6 -16 19 15 18 26 27 9 5 3 1 -10 3 -1 8 10 9 -1 3 7
10 17 13 39 -9 13 15 23 6 1 1 6 4 -17 11 16 12 -0 16 8 13 7 5 5 6 7 6 4 0 -0 4 8 9 3 2 -2 1 1 -2 2 19 24 13 6 6
-2 -6 30 -52 32 -12 6 2 3 18 1 8 1 11 -4 -15 2 14 -2 -5 -6 8 11 10 -4 9 3 9 10 11 4 2 3 5 5 7 2 20 18 24 17 16 13 6 8
3 6 29 16 11 16 -14 -7 7 1 17 -9 21 7 9 15 -4 2 0 -4 -5 15 11 8 5 14 16 15 9 31 22 36 27 21 3 11 21 14 4 -2 13 13 19 14 16
Height
3139 3140 3141 3142 3144 3144 3142 3143 3144 3143 3145 3146 3147 3150 3152 3154 3155 3157 3158 3159 3159 3160 3161 3161 3161 3162 3164 3165 3166 3167 3171 3170 3170 3170 3171 3168 3169 3171 3169 3169 3169 3168 3167 3165 3165
3137 3138 3138 3140 3140 3142 3142 3141 3140 3142 3143 3145 3146 3149 3152 3153 3155 3156 3158 3158 3159 3160 3161 3161 3163 3163 3165 3164 3165 3167 3169 3169 3167 3167 3167 3167 3166 3166 3166 3166 3167 3167 3164 3163 3162
3134 3134 3136 3137 3137 3138 3140 3140 3139 3140 3141 3143 3145 3148 3151 3153 3156 3156 3157 3158 3159 3160 3161 3162 3163 3164 3164 3164 3164 3165 3166 3165 3165 3164 3163 3163 3163 3162 3162 3163 3162 3161 3160 3160 3160
3130 3131 3132 3133 3134 3134 3136 3136 3138 3139 3139 3141 3144 3147 3150 3152 3158 3154 3156 3157 3158 3159 3161 3162 3163 3164 3164 3164 3162 3163 3162 3161 3162 3160 3160 3160 3160 3160 3160 3160 3158 3158 3158 3157 3157
3126 3127 3130 3131 3131 3130 3132 3135 3135 3136 3137 3139 3142 3145 3148 3151 3153 3153 3154 3156 3157 3159 3160 3161 3163 3163 3163 3163 3161 3160 3161 3159 3158 3158 3157 3157 3158 3157 3157 3157 3156 3156 3155 3155 3153
3122 3124 3126 3126 3128 3128 3128 3131 3133 3133 3134 3136 3140 3143 3146 3149 3149 3152 3153 3155 3156 3158 3159 3160 3161 3161 3160 3160 3160 3158 3157 3157 3156 3155 3154 3155 3156 3155 3154 3155 3154 3154 3153 3152 3150
3118 3121 3122 3123 3125 3125 3125 3128 3130 3131 3133 3134 3137 3139 3143 3146 3146 3149 3151 3153 3154 3156 3157 3158 3159 3159 3158 3158 3156 3156 3155 3155 3154 3152 3152 3151 3153 3153 3152 3152 3153 3153 3151 3150 3148
3113 3116 3118 3120 3122 3123 3123 3124 3126 3128 3130 3132 3134 3137 3138 3141 3144 3147 3149 3151 3152 3154 3155 3156 3157 3156 3156 3155 3154 3154 3154 3154 3152 3151 3151 3152 3153 3150 3150 3150 3151 3151 3151 3150 3148
3107 3111 3114 3116 3119 3119 3121 3123 3123 3126 3127 3129 3131 3133 3136 3138 3141 3144 3147 3149 3150 3152 3153 3154 3155 3155 3154 3154 3156 3154 3153 3153 3152 3150 3149 3151 3150 3147 3148 3149 3148 3148 3149 3149 3149
3101 3105 3109 3112 3116 3118 3119 3120 3121 3121 3123 3126 3128 3133 3134 3135 3138 3142 3144 3146 3147 3149 3151 3151 3152 3151 3152 3153 3152 3151 3152 3151 3152 3149 3147 3146 3145 3147 3144 3146 3146 3146 3147 3147 3147
3095 3100 3104 3107 3111 3114 3117 3119 3122 3124 3121 3122 3124 3126 3127 3131 3135 3138 3141 3143 3145 3146 3148 3147 3150 3150 3150 3151 3151 3149 3150 3149 3149 3146 3145 3144 3142 3143 3141 3141 3143 3144 3145 3145 3146
3089 3094 3099 3103 3107 3109 3114 3115 3115 3119 3118 3117 3120 3121 3126 3129 3131 3133 3137 3139 3140 3142 3146 3146 3144 3147 3145 3146 3146 3146 3147 3147 3146 3143 3143 3143 3139 3135 3136 3137 3139 3140 3141 3143 3144
3084 3089 3093 3097 3101 3105 3109 3113 3111 3114 3116 3115 3115 3118 3122 3126 3128 3130 3132 3135 3137 3140 3142 3142 3143 3141 3143 3143 3143 3143 3144 3145 3145 3141 3139 3139 3134 3131 3132 3134 3135 3138 3139 3140 3142
3078 3083 3087 3093 3099 3101 3105 3108 3109 3112 3115 3113 3110 3112 3117 3122 3124 3126 3128 3133 3134 3136 3139 3139 3139 3138 3139 3140 3141 3142 3142 3141 3141 3141 3138 3138 3131 3128 3126 3129 3132 3135 3137 3138 3139
3073 3078 3083 3088 3092 3098 3104 3104 3107 3111 3113 3107 3105 3105 3110 3116 3119 3120 3123 3127 3130 3131 3134 3135 3133 3135 3136 3138 3137 3140 3138 3139 3139 3139 3137 3135 3134 3122 3124 3126 3129 3132 3132 3134 3136
3069 3074 3077 3083 3090 3094 3099 3102 3107 3114 3107 3100 3100 3102 3106 3110 3113 3116 3120 3124 3126 3129 3128 3131 3131 3133 3135 3134 3135 3136 3137 3137 3136 3136 3133 3127 3129 3123 3122 3122 3125 3128 3129 3130 3132
3061 3070 3074 3080 3086 3092 3096 3100 3107 3102 3098 3096 3096 3099 3103 3105 3108 3112 3115 3117 3121 3125 3125 3127 3127 3128 3130 3132 3133 3134 3138 3134 3132 3131 3125 3125 3126 3119 3122 3122 3125 3124 3125 3127 3129
3056 3064 3070 3077 3082 3087 3092 3098 3095 3090 3093 3091 3095 3097 3102 3103 3106 3108 3111 3113 3115 3121 3122 3122 3124 3123 3123 3126 3132 3130 3134 3130 3127 3120 3121 3124 3121 3117 3118 3118 3122 3124 3123 3124 3124
3048 3057 3066 3073 3076 3083 3088 3090 3087 3088 3089 3091 3093 3095 3098 3099 3104 3105 3108 3110 3112 3114 3119 3118 3120 3118 3119 3120 3127 3128 3128 3129 3130 3126 3125 3118 3117 3114 3115 3116 3119 3120 3120 3119 3121
3044 3053 3061 3066 3072 3079 3083 3083 3086 3085 3087 3089 3092 3093 3095 3096 3100 3102 3105 3105 3108 3109 3114 3117 3118 3116 3117 3119 3121 3123 3124 3128 3128 3123 3116 3113 3114 3111 3112 3114 3115 3116 3116 3116 3118
3038 3046 3055 3061 3067 3073 3069 3077 3082 3083 3086 3088 3089 3090 3093 3093 3096 3097 3101 3101 3102 3105 3109 3114 3115 3115 3116 3116 3118 3121 3122 3123 3123 3122 3115 3112 3110 3109 3112 3113 3113 3113 3113 3114 3114
3032 3041 3049 3055 3061 3062 3066 3074 3079 3080 3082 3084 3085 3088 3088 3090 3092 3096 3098 3098 3099 3104 3105 3109 3112 3113 3114 3113 3115 3116 3119 3120 3120 3118 3117 3116 3111 3108 3109 3110 3110 3111 3111 3109 3110
3027 3033 3040 3049 3049 3055 3064 3069 3071 3074 3078 3081 3081 3084 3087 3089 3092 3093 3096 3097 3098 3100 3103 3107 3109 3109 3111 3113 3111 3112 3113 3115 3116 3115 3113 3114 3107 3105 3105 3107 3107 3106 3106 3105 3105
3020 3027 3034 3039 3048 3053 3056 3061 3064 3070 3075 3078 3080 3083 3085 3087 3090 3090 3092 3094 3096 3098 3102 3104 3104 3104 3106 3106 3106 3107 3108 3108 3111 3111 3109 3106 3105 3105 3104 3103 3102 3103 3100 3100 3100
3014 3019 3020 3023 3033 3042 3051 3056 3060 3065 3069 3073 3075 3079 3083 3085 3088 3089 3090 3093 3095 3097 3100 3101 3101 3104 3104 3104 3101 3102 3104 3104 3104 3103 3104 3100 3100 3100 3101 3100 3095 3096 3095 3091 3091
3004 3009 3014 3022 3031 3037 3043 3046 3053 3060 3064 3068 3072 3077 3081 3084 3087 3089 3090 3091 3093 3096 3096 3097 3099 3100 3099 3099 3096 3095 3096 3097 3097 3096 3095 3095 3092 3095 3092 3091 3090 3091 3088 3084 3082
2995 3002 3013 3016 3023 3030 3032 3042 3047 3054 3059 3064 3069 3072 3075 3081 3083 3084 3085 3088 3090 3091 3092 3095 3096 3098 3095 3095 3091 3089 3086 3087 3088 3090 3090 3087 3087 3088 3087 3083 3083 3083 3081 3078 3078